Location: Voyageurs National Park
(48.5020°N, 92.9292°W)
Time: 17:48:47
(UTC-06:00)

Amateur Radio Satellites - All Passes

Search period start: 20 December 2014 17:18
Search period end: 21 December 2014 17:18
Location: Voyageurs National Park, 48.5020°N, 92.9292°W

Satellite Date Start Highest point End Downlink Frequencies (MHz)
Time Altitude Azimuth
Cubesat XI-IV 20 Dec 17:21:37 17:26:56 75° 72° (ENE) 17:32:16 437.490
PRISM 20 Dec 17:23:19 17:25:33 14° 90° (E) 17:27:45 437.425
ISS 20 Dec 17:41:52 17:45:06 50° 8° (N) 17:48:19 145.825
GONETS M04 20 Dec 17:42:26 17:50:51 53° 271° (W) 17:59:10
PCSat 20 Dec 17:46:25 17:48:29 12° 347° (NNW) 17:50:33 145.827
CUTE-I 20 Dec 17:55:03 18:00:18 61° 258° (WSW) 18:05:35 437.470
CUBESAT XI-V 20 Dec 17:59:21 18:02:37 19° 90° (E) 18:05:51 437.345
STRAND 1 20 Dec 18:08:21 18:12:06 20° 91° (E) 18:15:50 437.568
JAS-2 20 Dec 18:11:46 18:16:53 20° 272° (W) 18:21:45 435.910
MOZHAYETS 4 20 Dec 18:13:08 18:17:19 34° 294° (WNW) 18:21:27
HO-68 20 Dec 18:25:23 18:31:02 26° 52° (NE) 18:36:41 435.675
DANDE 20 Dec 18:27:28 18:32:06 17° 56° (NE) 18:37:11 436.750
MaSat-1 20 Dec 18:31:56 18:33:55 24° 246° (WSW) 18:36:00 437.345
RS-15 20 Dec 18:35:33 18:46:06 46° 28° (NNE) 18:57:02 29.354- 29.394
AAUSAT CUBESAT 2 20 Dec 18:54:42 18:55:49 11° 56° (NE) 18:56:56 437.432
PRISM 20 Dec 18:57:23 19:01:32 64° 288° (WNW) 19:05:37 437.425
Cubesat XI-IV 20 Dec 19:04:08 19:07:37 18° 271° (W) 19:11:08 437.490
CANX-2 20 Dec 19:05:52 19:09:08 22° 63° (ENE) 19:12:26 2200.000
CINEMA 3 20 Dec 19:17:36 19:17:47 10° 54° (NE) 19:17:59 145.822/145.860
CUSAT 1 20 Dec 19:17:45 19:24:33 37° 67° (ENE) 19:32:11 437.405
ISS 20 Dec 19:18:31 19:21:46 62° 207° (SSW) 19:25:00 145.825
COMPASS 1 20 Dec 19:27:23 19:30:47 24° 64° (ENE) 19:34:13 437.405
PCSat 20 Dec 19:32:21 19:34:29 12° 14° (NNE) 19:36:37 145.827
SEEDS 20 Dec 19:32:35 19:36:20 31° 67° (ENE) 19:40:06 437.485
BRITE-PL 20 Dec 19:34:32 19:38:23 38° 69° (ENE) 19:42:15 437.365/2234.400
CUTE 1.7 + AOD 2 20 Dec 19:35:51 19:39:47 37° 68° (ENE) 19:43:47 437.475
CUBESAT XI-V 20 Dec 19:35:54 19:40:25 56° 289° (WNW) 19:44:54 437.345
GONETS M04 20 Dec 19:43:40 19:45:27 11° 293° (WNW) 19:47:13
DELFI C3 20 Dec 19:44:48 19:47:09 15° 60° (ENE) 19:49:30 145.870
BEESAT 3 20 Dec 19:45:31 19:48:03 15° 27° (NNE) 19:50:34 437.485
STRAND 1 20 Dec 19:46:41 19:51:43 61° 290° (WNW) 19:56:43 437.568
DX 1 20 Dec 19:51:16 19:54:13 18° 60° (ENE) 19:57:11 434.975-435.025
AIST 2 20 Dec 19:52:49 19:54:39 12° 19° (NNE) 19:56:30 435.215
SO-50 20 Dec 19:57:58 19:58:50 11° 107° (ESE) 19:59:42 436.795
GOMX 1 20 Dec 20:00:37 20:04:37 50° 71° (ENE) 20:08:43 467.674
DANDE 20 Dec 20:09:28 20:16:48 64° 75° (ENE) 20:25:20 436.750
HO-68 20 Dec 20:10:49 20:18:01 83° 253° (WSW) 20:25:15 435.675
Oscar 11 20 Dec 20:12:31 20:16:23 32° 67° (ENE) 20:20:16 145.826/435.025
UKube-1 20 Dec 20:21:09 20:25:00 32° 66° (ENE) 20:28:51 .
BEESAT 2 20 Dec 20:25:06 20:28:30 23° 35° (NE) 20:31:51 435.950
DOVE 4 20 Dec 20:25:29 20:29:35 68° 73° (ENE) 20:33:49 437.250
AAUSAT CUBESAT 2 20 Dec 20:26:32 20:30:45 80° 75° (ENE) 20:35:01 437.432
CUBEBUG 2 20 Dec 20:33:03 20:36:49 33° 67° (ENE) 20:40:41 437.445
CANX-2 20 Dec 20:40:42 20:44:49 45° 262° (W) 20:48:58 2200.000
ZACube-1 20 Dec 20:43:17 20:46:59 31° 66° (ENE) 20:50:47 437.345
VELOX 1 20 Dec 20:45:55 20:49:19 22° 62° (ENE) 20:52:44 145.980
RS-15 20 Dec 20:48:24 20:59:37 81° 236° (SW) 21:11:21 29.354- 29.394
CINEMA 3 20 Dec 20:50:01 20:54:10 74° 74° (ENE) 20:58:29 145.822/145.860
ESTCUBE 1 20 Dec 20:50:47 20:52:32 12° 55° (NE) 20:54:16 437.505/2401.250
ISS 20 Dec 20:56:25 20:57:48 12° 225° (SW) 20:59:11 145.825
CUSAT 1 20 Dec 21:00:35 21:07:59 63° 264° (W) 21:16:19 437.405
COMPASS 1 20 Dec 21:02:21 21:06:19 39° 263° (W) 21:10:21 437.405
SEEDS 20 Dec 21:08:23 21:12:08 30° 265° (W) 21:15:56 437.485
FUNcube-1 20 Dec 21:09:31 21:13:36 55° 72° (ENE) 21:17:49 145.935
UWE-3 20 Dec 21:10:30 21:14:40 66° 73° (ENE) 21:18:58 435.000/436.395/437.385
CUTE 1.7 + AOD 2 20 Dec 21:12:18 21:15:50 25° 267° (W) 21:19:24 437.475
BRITE-PL 20 Dec 21:13:53 21:17:07 22° 267° (W) 21:20:21 437.365/2234.400
PCSat 20 Dec 21:15:04 21:19:47 29° 39° (NE) 21:24:28 145.827
DELFI C3 20 Dec 21:17:49 21:21:55 68° 258° (WSW) 21:26:04 145.870
50 SAT 20 Dec 21:19:41 21:23:21 34° 68° (ENE) 21:27:03 437.505
BEESAT 3 20 Dec 21:22:55 21:27:05 60° 48° (NE) 21:31:11 437.485
DX 1 20 Dec 21:25:46 21:30:04 59° 258° (WSW) 21:34:22 434.975-435.025
AISAT 20 Dec 21:28:04 21:32:22 54° 71° (ENE) 21:36:41 437.250
STRAND 1 20 Dec 21:28:29 21:29:55 11° 309° (NW) 21:31:20 437.568
AIST 2 20 Dec 21:30:27 21:34:29 37° 42° (NE) 21:38:28 435.215
SO-50 20 Dec 21:33:55 21:38:28 73° 126° (SE) 21:43:11 436.795
CUBEBUG 1 20 Dec 21:34:22 21:37:58 26° 64° (ENE) 21:41:33 437.445
ANTELSAT 20 Dec 21:37:16 21:39:31 13° 87° (E) 21:41:47 437.575/2403.000
GOMX 1 20 Dec 21:40:26 21:43:08 17° 270° (W) 21:45:52 467.674
HUMSAT D 20 Dec 21:42:24 21:46:32 74° 74° (ENE) 21:50:45 437.325/437.525
Oscar 11 20 Dec 21:48:45 21:52:33 30° 265° (W) 21:56:24 145.826/435.025
DANDE 20 Dec 21:53:25 22:00:02 35° 271° (W) 22:07:31 436.750
UKube-1 20 Dec 21:57:20 22:01:09 30° 264° (W) 22:05:00 .
HO-68 20 Dec 22:02:15 22:06:48 18° 273° (W) 22:11:23 435.675
BEESAT 2 20 Dec 22:02:58 22:07:10 69° 235° (SW) 22:11:17 435.950
AAUSAT CUBESAT 2 20 Dec 22:05:33 22:07:00 12° 273° (W) 22:08:28 437.432
DOVE 4 20 Dec 22:06:03 22:07:56 13° 273° (W) 22:09:50 437.250
CUBEBUG 2 20 Dec 22:09:57 22:13:34 28° 266° (W) 22:17:17 437.445
POPSAT HIP 1 20 Dec 22:11:17 22:14:01 17° 90° (E) 22:16:45 437.405
TIGRISAT 20 Dec 22:11:23 22:15:22 27° 94° (E) 22:19:21 435.000
ZACube-1 20 Dec 22:19:41 22:23:22 29° 265° (W) 22:27:09 437.345
VELOX 1 20 Dec 22:21:22 22:25:38 47° 260° (W) 22:29:55 145.980
ESTCUBE 1 20 Dec 22:24:07 22:28:39 80° 74° (ENE) 22:33:13 437.505/2401.250
CINEMA 3 20 Dec 22:30:20 22:32:00 12° 273° (W) 22:33:42 145.822/145.860
BUGSAT 1 20 Dec 22:36:55 22:40:09 23° 94° (E) 22:43:24 437.445
TISAT 1 20 Dec 22:37:37 22:41:15 29° 66° (ENE) 22:44:54 437.305
DUCHIFAT 1 20 Dec 22:38:27 22:42:13 30° 96° (E) 22:45:58 145.980
UNISAT 6 20 Dec 22:40:17 22:44:52 50° 99° (E) 22:49:28 437.425
SPROUT 20 Dec 22:41:28 22:45:11 30° 66° (ENE) 22:48:55 437.525
CUSAT 1 20 Dec 22:46:01 22:49:57 15° 282° (WNW) 22:54:06 437.405
FUNcube-1 20 Dec 22:47:38 22:50:21 17° 270° (W) 22:53:07 145.935
UWE-3 20 Dec 22:49:32 22:51:44 14° 272° (W) 22:53:58 435.000/436.395/437.385
QB50P2 20 Dec 22:51:58 22:56:02 41° 98° (E) 23:00:06 145.880/145.840
50 SAT 20 Dec 22:55:22 22:58:39 24° 266° (W) 23:02:00 437.505
YUBILEINY 20 Dec 22:57:12 23:04:45 35° 83° (E) 23:12:18 435.215
PCSat 20 Dec 22:58:15 23:03:39 67° 240° (WSW) 23:09:01 145.827
POLYITAN 1 20 Dec 23:00:48 23:05:00 51° 100° (E) 23:09:11 437.675
BEESAT 3 20 Dec 23:01:55 23:04:52 19° 247° (WSW) 23:07:47 437.485
RS-15 20 Dec 23:02:04 23:10:20 25° 259° (W) 23:18:53 29.354- 29.394
NANOSAT C BR1 20 Dec 23:02:51 23:07:02 53° 100° (E) 23:11:12 145.865
AISAT 20 Dec 23:06:15 23:09:20 18° 269° (W) 23:12:26 437.250
AUBIESAT-1 20 Dec 23:06:34 23:08:06 11° 47° (NE) 23:09:37 437.475
AIST 2 20 Dec 23:09:11 23:13:06 34° 242° (WSW) 23:16:57 435.215
CUBEBUG 1 20 Dec 23:10:06 23:14:11 38° 262° (W) 23:18:17 437.445
ANTELSAT 20 Dec 23:12:11 23:16:56 84° 285° (WNW) 23:21:40 437.575/2403.000
SO-50 20 Dec 23:15:37 23:19:30 26° 327° (NNW) 23:23:29 436.795
QB50P1 20 Dec 23:17:16 23:21:32 75° 103° (ESE) 23:25:48 145.935-145.965
HUMSAT D 20 Dec 23:21:10 23:22:53 12° 273° (W) 23:24:37 437.325/437.525
SWISSCUBE 20 Dec 23:29:49 23:33:30 22° 61° (ENE) 23:37:10 437.505
M-CUBED/EXP-1 PRIME 20 Dec 23:30:12 23:33:31 19° 52° (NE) 23:36:51 437.505
ITUPSAT 1 20 Dec 23:30:32 23:34:05 21° 60° (ENE) 23:37:39 437.325
POPSAT HIP 1 20 Dec 23:46:06 23:50:17 57° 288° (WNW) 23:54:28 437.405
TIGRISAT 20 Dec 23:47:50 23:52:15 41° 292° (WNW) 23:56:40 435.000
BEESAT 20 Dec 23:54:03 23:58:17 33° 65° (ENE) 00:02:33 436.000
ESTCUBE 1 21 Dec 00:03:59 00:06:07 13° 272° (W) 00:08:15 437.505/2401.250
BUGSAT 1 21 Dec 00:12:02 00:15:47 36° 292° (WNW) 00:19:31 437.445
TISAT 1 21 Dec 00:13:18 00:17:02 31° 264° (W) 00:20:48 437.305
DUCHIFAT 1 21 Dec 00:14:19 00:18:04 31° 294° (WNW) 00:21:48 145.980
SPROUT 21 Dec 00:17:25 00:21:14 31° 264° (W) 00:25:05 437.525
UNISAT 6 21 Dec 00:17:39 00:21:22 24° 297° (WNW) 00:25:06 437.425
O/OREOS (USA 219) 21 Dec 00:27:42 00:31:48 37° 108° (ESE) 00:35:56 437.305
QB50P2 21 Dec 00:28:21 00:31:45 23° 296° (WNW) 00:35:08 145.880/145.840
AUBIESAT-1 21 Dec 00:37:20 00:42:05 56° 65° (ENE) 00:46:52 437.475
POLYITAN 1 21 Dec 00:37:31 00:40:37 20° 298° (WNW) 00:43:43 437.675
NANOSAT C BR1 21 Dec 00:39:34 00:42:34 19° 298° (WNW) 00:45:34 145.865
Oscar 19 21 Dec 00:41:32 00:45:12 19° 90° (E) 00:48:51 437.125/150
PCSat 21 Dec 00:44:50 00:46:01 11° 259° (W) 00:47:13 145.827
STARS 21 Dec 00:50:17 00:53:15 18° 60° (ENE) 00:56:14 437.465
ANTELSAT 21 Dec 00:50:45 00:53:00 14° 304° (NW) 00:55:17 437.575/2403.000
YUBILEINY 21 Dec 00:52:27 01:01:05 62° 285° (WNW) 01:09:44 435.215
KKS-1 21 Dec 00:53:43 00:57:25 27° 64° (ENE) 01:01:09 437.445
QB50P1 21 Dec 00:54:35 00:56:53 15° 301° (WNW) 00:59:12 145.935-145.965
SO-50 21 Dec 00:59:44 01:01:42 12° 351° (N) 01:03:42 436.795
M-CUBED/EXP-1 PRIME 21 Dec 01:03:03 01:07:56 83° 251° (WSW) 01:12:53 437.505
SWISSCUBE 21 Dec 01:06:18 01:11:01 55° 259° (W) 01:15:45 437.505
ITUPSAT 1 21 Dec 01:06:50 01:11:35 60° 259° (WSW) 01:16:22 437.325
BEESAT 21 Dec 01:31:42 01:36:05 35° 263° (W) 01:40:30 436.000
O/OREOS (USA 219) 21 Dec 02:07:22 02:11:17 29° 307° (NW) 02:15:13 437.305
AUBIESAT-1 21 Dec 02:13:28 02:17:18 23° 263° (W) 02:21:09 437.475
HORYU 2 21 Dec 02:14:01 02:15:09 11° 86° (E) 02:16:16 437.375
Oscar 19 21 Dec 02:19:51 02:25:02 67° 289° (WNW) 02:30:11 437.125/150
STARS 21 Dec 02:24:59 02:29:19 60° 258° (WSW) 02:33:41 437.465
KKS-1 21 Dec 02:29:48 02:33:55 38° 262° (W) 02:38:06 437.445
Gurwin Techsat 1B 21 Dec 02:33:32 02:38:37 44° 98° (E) 02:43:40 435.225
ITAMSAT 1 21 Dec 02:36:18 02:41:29 70° 103° (ESE) 02:46:39 435.822/435.867
M-CUBED/EXP-1 PRIME 21 Dec 02:41:32 02:43:37 13° 268° (W) 02:45:42 437.505
SO-50 21 Dec 02:41:41 02:44:18 14° 17° (NNE) 02:46:57 436.795
AO-7 21 Dec 02:51:01 02:56:04 17° 86° (E) 03:01:04 29.400- 29.500
YUBILEINY 21 Dec 02:55:00 03:00:04 16° 311° (NW) 03:05:09 435.215
AIST 1 21 Dec 03:11:13 03:15:26 52° 77° (ENE) 03:19:35
MOZHAYETS 4 21 Dec 03:41:28 03:45:54 46° 69° (ENE) 03:50:22
VERMONT LUNAR 21 Dec 03:46:37 03:48:53 16° 164° (SSE) 03:51:10 437.305
HORYU 2 21 Dec 03:47:57 03:52:31 87° 106° (ESE) 03:57:02 437.375
Oscar 19 21 Dec 04:01:19 04:03:26 13° 308° (NW) 04:05:33 437.125/150
PHONESAT 2.4 21 Dec 04:02:38 04:04:53 16° 162° (SSE) 04:07:08 2401.200-2431.200
Gurwin Techsat 1B 21 Dec 04:13:49 04:18:26 31° 297° (WNW) 04:23:02 435.225
ITAMSAT 1 21 Dec 04:16:46 04:20:29 20° 302° (WNW) 04:24:11 435.822/435.867
PRISM 21 Dec 04:17:34 04:20:36 20° 61° (ENE) 04:23:38 437.425
SO-50 21 Dec 04:21:42 04:26:13 36° 39° (NE) 04:30:45 436.795
AO-7 21 Dec 04:41:55 04:50:20 74° 107° (ESE) 04:58:40 29.400- 29.500
AIST 1 21 Dec 04:49:57 04:52:40 17° 275° (W) 04:55:22
GONETS M04 21 Dec 04:51:36 04:59:36 41° 85° (E) 05:07:37
CUBESAT XI-V 21 Dec 05:06:22 05:10:22 29° 65° (ENE) 05:14:22 437.345
JAS-2 21 Dec 05:15:00 05:20:43 60° 100° (E) 05:25:55 435.910
MOZHAYETS 4 21 Dec 05:19:37 05:23:20 23° 268° (W) 05:27:05
VERMONT LUNAR 21 Dec 05:23:44 05:26:33 22° 181° (S) 05:29:22 437.305
HORYU 2 21 Dec 05:26:12 05:28:32 14° 303° (WNW) 05:30:52 437.375
STRAND 1 21 Dec 05:27:37 05:32:26 43° 67° (ENE) 05:37:15 437.568
Cubesat XI-IV 21 Dec 05:35:47 05:39:53 22° 91° (E) 05:43:58 437.490
PHONESAT 2.4 21 Dec 05:39:57 05:42:53 23° 179° (S) 05:45:49 2401.200-2431.200
PRISM 21 Dec 05:51:41 05:55:48 51° 259° (W) 05:59:57 437.425
SO-50 21 Dec 06:02:14 06:06:54 46° 239° (WSW) 06:11:35 436.795
CUTE-I 21 Dec 06:08:20 06:13:20 40° 98° (E) 06:18:19 437.470
AO-7 21 Dec 06:35:19 06:42:31 34° 308° (NW) 06:49:42 29.400- 29.500
CUBESAT XI-V 21 Dec 06:43:21 06:47:42 38° 263° (W) 06:52:03 437.345
GONETS M04 21 Dec 06:47:36 06:56:12 54° 287° (WNW) 07:04:51
JAS-2 21 Dec 07:00:48 07:05:21 24° 303° (WNW) 07:09:36 435.910
VERMONT LUNAR 21 Dec 07:02:03 07:04:11 15° 198° (SSW) 07:06:18 437.305
STRAND 1 21 Dec 07:07:21 07:11:46 29° 265° (W) 07:16:12 437.568
Cubesat XI-IV 21 Dec 07:15:08 07:20:23 60° 290° (WNW) 07:25:36 437.490
PHONESAT 2.4 21 Dec 07:18:30 07:20:54 17° 196° (SSW) 07:23:19 2401.200-2431.200
HO-68 21 Dec 07:36:15 07:40:12 15° 85° (E) 07:44:06 435.675
BRITE-PL 21 Dec 07:37:36 07:37:51 10° 86° (E) 07:38:06 437.365/2234.400
CUTE-I 21 Dec 07:48:36 07:53:20 34° 296° (WNW) 07:58:04 437.470
GOMX 1 21 Dec 07:59:25 08:01:33 13° 88° (E) 08:03:45 467.674
AAUSAT CUBESAT 2 21 Dec 08:09:21 08:09:59 10° 86° (E) 08:10:36 437.432
UNISAT 6 21 Dec 08:11:04 08:11:39 10° 53° (NE) 08:12:13 437.425
DOVE 4 21 Dec 08:21:17 08:24:11 16° 89° (E) 08:27:10 437.250
CANX-2 21 Dec 08:22:49 08:26:23 24° 93° (E) 08:29:54 2200.000
AO-7 21 Dec 08:30:30 08:32:47 11° 333° (NNW) 08:35:04 29.400- 29.500
CUSAT 1 21 Dec 08:35:50 08:38:34 17° 80° (E) 08:41:47 437.405
ANTELSAT 21 Dec 08:40:10 08:43:15 19° 60° (ENE) 08:46:23 437.575/2403.000
QB50P1 21 Dec 08:41:07 08:42:50 12° 57° (ENE) 08:44:33 145.935-145.965
CINEMA 3 21 Dec 08:42:01 08:44:48 15° 89° (E) 08:47:38 145.822/145.860
COMPASS 1 21 Dec 08:42:43 08:46:19 26° 94° (E) 08:49:53 437.405
SEEDS 21 Dec 08:48:57 08:52:55 35° 96° (E) 08:56:50 437.485
GONETS M04 21 Dec 08:51:10 08:55:33 14° 314° (NW) 08:59:57
CUTE 1.7 + AOD 2 21 Dec 08:53:10 08:57:19 44° 98° (E) 09:01:26 437.475
O/OREOS (USA 219) 21 Dec 08:54:44 08:58:15 22° 49° (NE) 09:01:46 437.305
DELFI C3 21 Dec 08:56:14 08:58:24 14° 89° (E) 09:00:32 145.870
Cubesat XI-IV 21 Dec 08:57:44 08:59:26 12° 310° (NW) 09:01:07 437.490
UWE-3 21 Dec 08:58:50 09:00:23 12° 86° (E) 09:01:56 435.000/436.395/437.385
YUBILEINY 21 Dec 09:01:42 09:08:07 22° 56° (NE) 09:14:30 435.215
POPSAT HIP 1 21 Dec 09:08:09 09:11:20 21° 63° (ENE) 09:14:33 437.405
DX 1 21 Dec 09:11:21 09:14:20 18° 92° (E) 09:17:19 434.975-435.025
BRITE-PL 21 Dec 09:12:22 09:17:02 77° 103° (ESE) 09:22:04 437.365/2234.400
TIGRISAT 21 Dec 09:14:05 09:18:04 35° 67° (ENE) 09:22:11 435.000
HO-68 21 Dec 09:21:56 09:29:08 75° 105° (ESE) 09:36:16 435.675
MaSat-1 21 Dec 09:25:41 09:27:50 39° 303° (WNW) 09:29:57 437.345
DANDE 21 Dec 09:29:28 09:33:02 44° 92° (E) 09:37:50 436.750
BUGSAT 1 21 Dec 09:31:01 09:34:30 27° 66° (ENE) 09:37:57 437.445
Oscar 11 21 Dec 09:31:53 09:35:59 38° 97° (E) 09:40:02 145.826/435.025
DUCHIFAT 1 21 Dec 09:34:58 09:38:49 37° 68° (ENE) 09:42:42 145.980
GOMX 1 21 Dec 09:35:31 09:40:14 89° 284° (WNW) 09:45:18 467.674
UKube-1 21 Dec 09:40:59 09:44:56 33° 97° (E) 09:48:51 .
AAUSAT CUBESAT 2 21 Dec 09:42:01 09:46:17 89° 287° (WNW) 09:50:32 437.432
UNISAT 6 21 Dec 09:43:10 09:47:32 68° 73° (ENE) 09:52:03 437.425
QB50P2 21 Dec 09:48:47 09:52:52 52° 71° (ENE) 09:57:00 145.880/145.840
CUBEBUG 2 21 Dec 09:56:21 10:00:49 46° 99° (E) 10:05:22 437.445
DOVE 4 21 Dec 09:57:41 10:02:24 74° 286° (WNW) 10:07:24 437.250
POLYITAN 1 21 Dec 09:57:48 10:01:57 64° 73° (ENE) 10:06:10 437.675
CANX-2 21 Dec 09:58:24 10:02:27 39° 291° (WNW) 10:06:27 2200.000
NANOSAT C BR1 21 Dec 09:59:22 10:03:31 65° 73° (ENE) 10:07:43 145.865
ZACube-1 21 Dec 10:03:57 10:08:14 40° 98° (E) 10:12:33 437.345
VELOX 1 21 Dec 10:08:44 10:12:22 24° 94° (E) 10:15:59 145.980
QB50P1 21 Dec 10:13:52 10:18:05 89° 255° (WSW) 10:22:20 145.935-145.965
ESTCUBE 1 21 Dec 10:15:06 10:17:08 13° 88° (E) 10:19:10 437.505/2401.250
ANTELSAT 21 Dec 10:15:16 10:19:36 60° 259° (W) 10:24:06 437.575/2403.000
CUSAT 1 21 Dec 10:16:54 10:20:48 52° 289° (WNW) 10:26:05 437.405
CINEMA 3 21 Dec 10:17:47 10:22:29 75° 286° (WNW) 10:27:22 145.822/145.860
COMPASS 1 21 Dec 10:18:12 10:22:07 35° 292° (WNW) 10:25:59 437.405
SEEDS 21 Dec 10:24:59 10:28:38 27° 295° (WNW) 10:32:15 437.485
CUTE 1.7 + AOD 2 21 Dec 10:29:38 10:33:00 23° 297° (WNW) 10:36:22 437.475
DELFI C3 21 Dec 10:30:00 10:34:07 64° 287° (WNW) 10:38:10 145.870
FUNcube-1 21 Dec 10:30:20 10:34:52 72° 102° (ESE) 10:39:27 145.935
50 SAT 21 Dec 10:31:08 10:34:59 35° 97° (E) 10:38:48 437.505
UWE-3 21 Dec 10:32:57 10:37:34 88° 104° (ESE) 10:42:14 435.000/436.395/437.385
O/OREOS (USA 219) 21 Dec 10:33:35 10:38:01 57° 249° (WSW) 10:42:27 437.305
POPSAT HIP 1 21 Dec 10:42:57 10:46:59 45° 261° (W) 10:51:03 437.405
DX 1 21 Dec 10:46:40 10:50:55 54° 290° (WNW) 10:55:08 434.975-435.025
TIGRISAT 21 Dec 10:51:07 10:54:53 28° 266° (W) 10:58:46 435.000
AISAT 21 Dec 10:51:52 10:56:18 65° 102° (ESE) 11:00:43 437.250
BRITE-PL 21 Dec 10:52:14 10:55:06 17° 300° (WNW) 10:58:05 437.365/2234.400
CUBEBUG 1 21 Dec 10:55:24 10:59:11 29° 95° (E) 11:02:58 437.445
YUBILEINY 21 Dec 10:57:42 11:06:27 82° 80° (E) 11:15:10 435.215
HUMSAT D 21 Dec 10:58:53 11:03:15 85° 104° (ESE) 11:07:36 437.325/437.525
BUGSAT 1 21 Dec 11:06:18 11:09:56 31° 264° (W) 11:13:34 437.445
Oscar 11 21 Dec 11:08:22 11:12:00 26° 295° (WNW) 11:15:38 145.826/435.025
HO-68 21 Dec 11:10:24 11:16:15 28° 306° (NW) 11:22:06 435.675
DUCHIFAT 1 21 Dec 11:11:22 11:14:48 24° 266° (W) 11:18:15 145.980
DANDE 21 Dec 11:13:54 11:17:03 21° 302° (WNW) 11:20:55 436.750
GOMX 1 21 Dec 11:15:20 11:17:47 14° 302° (WNW) 11:20:19 467.674
RS-15 21 Dec 11:16:48 11:26:51 45° 111° (ESE) 11:36:56 29.354- 29.394
UKube-1 21 Dec 11:17:16 11:21:02 29° 295° (WNW) 11:24:46 .
AAUSAT CUBESAT 2 21 Dec 11:19:38 11:21:17 12° 303° (WNW) 11:22:57 437.432
UNISAT 6 21 Dec 11:22:20 11:24:51 15° 272° (W) 11:27:25 437.425
QB50P2 21 Dec 11:26:15 11:29:06 18° 269° (W) 11:31:59 145.880/145.840
CUBEBUG 2 21 Dec 11:33:34 11:37:18 25° 296° (WNW) 11:41:05 437.445
POLYITAN 1 21 Dec 11:36:02 11:38:21 14° 271° (W) 11:40:41 437.675
NANOSAT C BR1 21 Dec 11:37:38 11:39:52 14° 271° (W) 11:42:06 145.865
DOVE 4 21 Dec 11:37:40 11:39:27 12° 304° (WNW) 11:41:16 437.250
ZACube-1 21 Dec 11:40:40 11:44:27 27° 295° (WNW) 11:48:15 437.345
VELOX 1 21 Dec 11:44:57 11:49:06 40° 292° (WNW) 11:53:13 145.980
ESTCUBE 1 21 Dec 11:50:05 11:54:36 79° 286° (WNW) 11:59:05 437.505/2401.250
TISAT 1 21 Dec 11:54:14 11:58:01 31° 96° (E) 12:01:46 437.305
CINEMA 3 21 Dec 11:57:08 11:58:57 12° 304° (NW) 12:00:49 145.822/145.860
SPROUT 21 Dec 12:00:06 12:04:02 34° 96° (E) 12:07:57 437.525
Oscar 19 21 Dec 12:01:45 12:06:31 40° 66° (ENE) 12:11:19 437.125/150
50 SAT 21 Dec 12:06:38 12:10:04 25° 295° (WNW) 12:13:30 437.505
AO-7 21 Dec 12:07:32 12:10:31 12° 29° (NNE) 12:13:30 29.400- 29.500
FUNcube-1 21 Dec 12:07:54 12:10:43 17° 300° (WNW) 12:13:33 145.935
UWE-3 21 Dec 12:11:07 12:13:29 14° 302° (WNW) 12:15:52 435.000/436.395/437.385
ITAMSAT 1 21 Dec 12:20:07 12:24:17 25° 61° (ENE) 12:28:27 435.822/435.867
Gurwin Techsat 1B 21 Dec 12:20:59 12:24:26 18° 56° (NE) 12:27:53 435.225
AISAT 21 Dec 12:29:35 12:32:28 17° 301° (WNW) 12:35:21 437.250
CUBEBUG 1 21 Dec 12:31:42 12:35:35 33° 293° (WNW) 12:39:28 437.445
HUMSAT D 21 Dec 12:36:22 12:38:26 13° 302° (WNW) 12:40:31 437.325/437.525
YUBILEINY 21 Dec 12:55:41 13:02:14 25° 282° (WNW) 13:08:48 435.215
BEESAT 3 21 Dec 12:59:04 13:02:45 32° 118° (ESE) 13:06:29 437.485
SWISSCUBE 21 Dec 13:03:15 13:07:24 29° 95° (E) 13:11:31 437.505
ITUPSAT 1 21 Dec 13:04:09 13:08:12 27° 94° (E) 13:12:13 437.325
AIST 2 21 Dec 13:11:35 13:14:44 20° 113° (ESE) 13:17:55 435.215
HORYU 2 21 Dec 13:15:23 13:18:23 18° 59° (ENE) 13:21:24 437.375
BEESAT 21 Dec 13:27:49 13:32:24 44° 99° (E) 13:36:57 436.000
RS-15 21 Dec 13:27:55 13:38:46 67° 317° (NW) 13:49:49 29.354- 29.394
ESTCUBE 1 21 Dec 13:29:05 13:30:43 12° 305° (NW) 13:32:22 437.505/2401.250
TISAT 1 21 Dec 13:30:07 13:33:48 30° 294° (WNW) 13:37:29 437.305
SPROUT 21 Dec 13:36:21 13:40:02 28° 294° (WNW) 13:43:43 437.525
ISS 21 Dec 13:38:07 13:41:00 28° 144° (SE) 13:43:53 145.825
BEESAT 2 21 Dec 13:39:14 13:43:21 70° 125° (SE) 13:47:32 435.950
Oscar 19 21 Dec 13:41:21 13:45:56 32° 265° (W) 13:50:34 437.125/150
PCSat 21 Dec 13:43:25 13:48:39 53° 117° (ESE) 13:53:56 145.827
JAS-2 21 Dec 13:50:29 13:52:39 12° 46° (NE) 13:54:46 435.910
AUBIESAT-1 21 Dec 13:52:17 13:55:46 23° 97° (E) 13:59:01 437.475
AO-7 21 Dec 13:53:33 14:00:56 37° 54° (NE) 14:08:20 29.400- 29.500
ITAMSAT 1 21 Dec 13:58:24 14:03:28 54° 259° (W) 14:08:33 435.822/435.867
Gurwin Techsat 1B 21 Dec 13:58:25 14:03:45 85° 255° (WSW) 14:09:06 435.225
STARS 21 Dec 14:11:59 14:15:13 19° 92° (E) 14:18:27 437.465
KKS-1 21 Dec 14:17:09 14:21:08 31° 96° (E) 14:25:07 437.445
M-CUBED/EXP-1 PRIME 21 Dec 14:18:08 14:22:25 46° 104° (ESE) 14:26:19 437.505
BEESAT 3 21 Dec 14:37:02 14:40:54 37° 318° (NW) 14:44:48 437.485
SWISSCUBE 21 Dec 14:40:56 14:45:22 39° 293° (WNW) 14:49:45 437.505
ITUPSAT 1 21 Dec 14:41:45 14:46:14 42° 293° (WNW) 14:50:42 437.325
AIST 2 21 Dec 14:48:47 14:53:00 58° 313° (NW) 14:57:16 435.215
HORYU 2 21 Dec 14:50:09 14:54:35 64° 258° (WSW) 14:59:05 437.375
GONETS M04 21 Dec 14:56:36 15:03:37 26° 58° (ENE) 15:10:34
BEESAT 21 Dec 15:06:06 15:10:03 26° 297° (WNW) 15:13:58 436.000
ISS 21 Dec 15:14:06 15:17:24 72° 342° (NNW) 15:20:42 145.825
BEESAT 2 21 Dec 15:18:42 15:22:01 22° 326° (NW) 15:25:23 435.950
AUBIESAT-1 21 Dec 15:26:45 15:30:57 42° 298° (WNW) 15:34:47 437.475
Cubesat XI-IV 21 Dec 15:27:23 15:27:31 10° 48° (NE) 15:27:39 437.490
PCSat 21 Dec 15:27:25 15:32:19 34° 318° (NW) 15:37:16 145.827
JAS-2 21 Dec 15:29:16 15:36:19 47° 66° (ENE) 15:42:42 435.910
Gurwin Techsat 1B 21 Dec 15:42:06 15:44:31 13° 274° (W) 15:46:57 435.225
RS-15 21 Dec 15:43:43 15:53:33 36° 348° (NNW) 16:03:40 29.354- 29.394
AO-7 21 Dec 15:45:02 15:53:17 66° 255° (WSW) 16:01:38 29.400- 29.500
AIST 1 21 Dec 15:45:16 15:48:54 26° 89° (E) 15:52:31
STARS 21 Dec 15:47:41 15:52:00 51° 290° (WNW) 15:56:18 437.465
M-CUBED/EXP-1 PRIME 21 Dec 15:53:34 15:57:08 24° 304° (NW) 16:00:29 437.505
KKS-1 21 Dec 15:53:47 15:57:47 33° 294° (WNW) 16:01:46 437.445
CUTE-I 21 Dec 15:56:41 16:00:01 17° 55° (NE) 16:03:21 437.470
BEESAT 3 21 Dec 16:18:38 16:20:15 12° 340° (NNW) 16:21:52 437.485
AIST 2 21 Dec 16:29:53 16:32:31 16° 334° (NNW) 16:35:09 435.215
ISS 21 Dec 16:51:02 16:54:14 46° 2° (N) 16:57:26 145.825
GONETS M04 21 Dec 16:52:52 17:01:42 87° 262° (W) 17:10:24
Cubesat XI-IV 21 Dec 17:01:18 17:06:27 52° 68° (ENE) 17:11:37 437.490
